Pontianak, Indonesia

10:32 AM WIB on July 25, 2017 (GMT +0700)
Supadio

Weather History for WIOO - December, 2013

Change the Weather History Date:

Sunday, December 8, 2013

  Actual Average Record
Temperature  
Mean Temperature 78 °F -  
Max Temperature 83 °F - - ()
Min Temperature 73 °F - - ()
Cooling Degree Days 13    
Growing Degree Days 28 (Base 50)    
Moisture  
Dew Point 75 °F    
Average Humidity 94    
Maximum Humidity 100    
Minimum Humidity 74    
Precipitation  
Precipitation 2.28 in - - ()
Sea Level Pressure  
Sea Level Pressure 29.80 in    
Wind  
Wind Speed 3 mph ()    
Max Wind Speed 23 mph    
Max Gust Speed -    
Visibility 3.7 miles    
Events Rain , Thunderstorm    
T = Trace of Precipitation, MM = Missing Value Source: Averaged Metar Reports

Daily Weather History Graph

Daily Weather History Graph

Search for Another Location

Airport or City:

Trip Planner

Search our weather history database for the weather conditions in past years. The results will help you decide how hot, cold, wet, or windy it might be!

Date:

Astronomy

Dec. 08, 2013 Rise Set
Actual Time 5:30 AM WIB 5:38 PM WIB
Civil Twilight 5:07 AM WIB 6:00 PM WIB
Nautical Twilight 4:41 AM WIB 6:26 PM WIB
Astronomical Twilight 4:15 AM WIB 6:52 PM WIB
Moon 10:24 AM WIB (12/8) 10:49 PM WIB (12/8)
Length of Visible Light 12h 52m
Length of Day
12h 07m
Waxing Crescent, 34% of the Moon is Illuminated
Dec 8
Waxing Crescent
Dec 9
First Quarter
Dec 17
Full
Dec 25
Last Quarter
Jan 1
New

Hourly Weather History & Observations

Time (WIB) Temp. Heat Index Dew Point Humidity Pressure Visibility Wind Dir Wind Speed Gust Speed Precip Events Conditions
1:00 AM 77 °F - 76 °F 97% 29.81 in 4 mi Calm Calm - - Rain Light Rain
4:00 AM 76 °F - 74 °F 94% 29.77 in 4 mi Calm Calm - -   Overcast
5:00 AM 77.0 °F - 75.2 °F 94% 29.77 in - North - - N/A   Mostly Cloudy
5:30 AM 75.2 °F - 75.2 °F 100% 29.77 in 3.7 mi Calm Calm - N/A   Mostly Cloudy
6:00 AM 75.2 °F - 75.2 °F 100% 29.80 in 3.7 mi Calm Calm - N/A   Mostly Cloudy
6:30 AM 75.2 °F - 75.2 °F 100% 29.80 in 5.0 mi SW 4.6 mph - N/A   Partly Cloudy
7:00 AM 76 °F - 75 °F 97% 29.83 in 5 mi Calm Calm - -   Overcast
7:00 AM 75.2 °F - 75.2 °F 100% 29.80 in 5.0 mi Calm Calm - N/A   Mostly Cloudy
7:30 AM 77.0 °F - 75.2 °F 94% 29.83 in 5.0 mi Calm Calm - N/A   Mostly Cloudy
8:00 AM 77.0 °F - 77.0 °F 100% 29.83 in 5.0 mi Calm Calm - N/A   Mostly Cloudy
8:30 AM 77.0 °F - 77.0 °F 100% 29.83 in 5.0 mi Calm Calm - N/A   Mostly Cloudy
9:00 AM 80.6 °F 86.2 °F 75.2 °F 84% 29.86 in 5.0 mi Calm Calm - N/A   Mostly Cloudy
9:30 AM 80.6 °F 87.1 °F 77.0 °F 89% 29.83 in 5.0 mi Calm Calm - N/A   Mostly Cloudy
10:00 AM 83 °F - 76 °F 74% 29.86 in 6 mi Calm Calm - -   Mostly Cloudy
10:00 AM 82.4 °F 89.5 °F 75.2 °F 79% - 6.2 mi Calm Calm - N/A   Mostly Cloudy
10:30 AM 82.4 °F 90.9 °F 77.0 °F 84% 29.83 in 6.2 mi Calm Calm - N/A   Mostly Cloudy
11:00 AM 82.4 °F 90.9 °F 77.0 °F 84% 29.80 in 6.2 mi North 6.9 mph - N/A   Mostly Cloudy
11:30 AM 84.2 °F 94.1 °F 77.0 °F 79% 29.80 in 6.2 mi NNE 3.5 mph - N/A   Partly Cloudy
12:00 PM 84.2 °F 94.1 °F 77.0 °F 79% 29.80 in 6.2 mi WNW 5.8 mph - N/A   Partly Cloudy
12:30 PM 82.4 °F 90.9 °F 77.0 °F 84% 29.77 in 5.0 mi WNW 17.3 mph - N/A   Partly Cloudy
1:00 PM 77 °F - 75 °F 92% 29.80 in 0 mi WSW 23.0 mph - - Rain Light Rain
1:00 PM 77.0 °F - 75.2 °F 94% 29.77 in 0.5 mi WSW 23.0 mph - N/A Rain Rain
1:30 PM 75.2 °F - 75.2 °F 100% 29.77 in 0.5 mi WSW 18.4 mph - N/A Rain , Thunderstorm Thunderstorms and Rain
2:00 PM 75.2 °F - 75.2 °F 100% 29.77 in 0.5 mi West 13.8 mph - N/A Rain , Thunderstorm Thunderstorms and Rain
2:30 PM 73.4 °F - 73.4 °F 100% 29.74 in 1.9 mi WSW 6.9 mph - N/A Rain , Thunderstorm Thunderstorms and Rain
3:00 PM 75.2 °F - 73.4 °F 94% 29.77 in 1.9 mi SW 3.5 mph - N/A Rain , Thunderstorm Thunderstorms and Rain
3:30 PM 75.2 °F - 73.4 °F 94% 29.77 in 1.9 mi Calm Calm - N/A Rain , Thunderstorm Thunderstorms and Rain
4:00 PM 74 °F - 73 °F 97% 29.78 in 2 mi Calm Calm - - Rain , Thunderstorm Thunderstorms and Rain
4:00 PM 75.2 °F - 73.4 °F 94% 29.77 in 1.9 mi Calm Calm - N/A Rain , Thunderstorm Thunderstorms and Rain
4:30 PM 75.2 °F - 73.4 °F 94% 29.77 in 3.1 mi Calm Calm - N/A Rain , Thunderstorm Thunderstorms and Rain
5:00 PM 75.2 °F - 73.4 °F 94% 29.77 in 2.5 mi Calm Calm - N/A Rain , Thunderstorm Thunderstorms and Rain
5:30 PM 75.2 °F - 73.4 °F 94% 29.77 in 2.5 mi Calm Calm - N/A Rain , Thunderstorm Thunderstorms and Rain
6:00 PM 75.2 °F - 75.2 °F 100% 29.77 in 2.5 mi Calm Calm - N/A Rain Light Rain
6:30 PM 75.2 °F - 75.2 °F 100% 29.80 in 2.5 mi North 3.5 mph - N/A Rain Light Rain
7:00 PM 75 °F - 74 °F 97% 29.82 in 4 mi NE 4.6 mph - - Rain Light Rain
7:00 PM 75.2 °F - 75.2 °F 100% 29.80 in 3.7 mi NE 4.6 mph - N/A   Partly Cloudy
7:30 PM 75.2 °F - 75.2 °F 100% 29.80 in 3.1 mi NE 4.6 mph - N/A Rain Light Rain
8:00 PM 75.2 °F - 73.4 °F 94% 29.80 in 3.1 mi NNE 3.5 mph - N/A Rain Light Rain
8:30 PM 75.2 °F - 73.4 °F 94% 29.83 in 3.1 mi NNE 3.5 mph - N/A Rain Light Rain
9:00 PM 75.2 °F - 73.4 °F 94% 29.83 in 3.7 mi NE 5.8 mph - N/A   Mostly Cloudy
10:00 PM 74 °F - 74 °F 98% 29.85 in 4 mi ENE 2.3 mph - - Rain Light Rain
10:00 PM 75.2 °F - 73.4 °F 94% 29.83 in 3.7 mi ENE 2.3 mph - N/A Rain Light Rain